DAL2778 KATL-KMEM

Flight info

Callsign DAL2778
Flight time 0h 59m
Altitude 34000
Route NASSA2 CHOOK WASER VANZE3
Aircraft B738/M-SDE2E3FGHIRWXY/LB1

Departure

Time 2026-05-08 01:36
Airport Hartsfield Jackson Atlanta International Airport (KATL)

Arrival

Time 2026-05-08 02:35
Airport Memphis International Airport (KMEM)
Time Latitude Longitude Altitude Speed Heading
2026-05-08 01:18 33.64298 -84.43537 1034 ft 0 kts 269°
2026-05-08 01:24 33.64298 -84.43524 1034 ft 4 kts 269°
2026-05-08 01:24 33.64297 -84.43493 1034 ft 4 kts 286°
2026-05-08 01:24 33.64285 -84.43467 1034 ft 4 kts 327°
2026-05-08 01:25 33.64270 -84.43460 1034 ft 0 kts 360°
2026-05-08 01:28 33.64275 -84.43460 1034 ft 4 kts 360°
2026-05-08 01:28 33.64320 -84.43461 1034 ft 7 kts
2026-05-08 01:28 33.64362 -84.43461 1034 ft 0 kts
2026-05-08 01:29 33.64369 -84.43461 1034 ft 5 kts 360°
2026-05-08 01:29 33.64430 -84.43450 1035 ft 12 kts 25°
2026-05-08 01:29 33.64460 -84.43353 1035 ft 14 kts 90°
2026-05-08 01:30 33.64460 -84.43243 1035 ft 13 kts 89°
2026-05-08 01:30 33.64459 -84.43134 1035 ft 13 kts 91°
2026-05-08 01:30 33.64461 -84.43028 1035 ft 13 kts 89°
2026-05-08 01:30 33.64461 -84.42924 1034 ft 12 kts 90°
2026-05-08 01:31 33.64461 -84.42813 1034 ft 15 kts 88°
2026-05-08 01:31 33.64470 -84.42667 1034 ft 20 kts 90°
2026-05-08 01:31 33.64470 -84.42500 1034 ft 20 kts 89°
2026-05-08 01:31 33.64470 -84.42336 1034 ft 19 kts 91°
2026-05-08 01:32 33.64508 -84.42187 1034 ft 18 kts 60°
2026-05-08 01:32 33.64543 -84.42050 1034 ft 18 kts 89°
2026-05-08 01:32 33.64543 -84.41906 1034 ft 17 kts 90°
2026-05-08 01:32 33.64543 -84.41767 1035 ft 17 kts 89°
2026-05-08 01:33 33.64543 -84.41630 1035 ft 16 kts 90°
2026-05-08 01:33 33.64543 -84.41479 1035 ft 19 kts 90°
2026-05-08 01:33 33.64543 -84.41289 1035 ft 26 kts 90°
2026-05-08 01:33 33.64544 -84.41082 1035 ft 24 kts 90°
2026-05-08 01:34 33.64543 -84.40907 1034 ft 17 kts 90°
2026-05-08 01:34 33.64567 -84.40772 1034 ft 16 kts 76°
2026-05-08 01:34 33.64570 -84.40638 1033 ft 16 kts 86°
2026-05-08 01:34 33.64610 -84.40575 1033 ft 8 kts 19°
2026-05-08 01:35 33.64666 -84.40585 1032 ft 9 kts 329°
2026-05-08 01:35 33.64678 -84.40624 1032 ft 0 kts 271°
2026-05-08 01:35 33.64678 -84.40639 1032 ft 16 kts 270°
2026-05-08 01:35 33.64679 -84.41124 1035 ft 98 kts 270°
2026-05-08 01:36 33.64680 -84.42229 1047 ft 164 kts 272°
2026-05-08 01:36 33.64666 -84.43714 1575 ft 187 kts 274°
2026-05-08 01:36 33.64823 -84.45334 2230 ft 207 kts 283°
2026-05-08 01:36 33.65129 -84.47161 2501 ft 239 kts 284°
2026-05-08 01:37 33.65479 -84.49190 3071 ft 247 kts 284°
2026-05-08 01:37 33.65811 -84.51150 4105 ft 234 kts 282°
2026-05-08 01:37 33.66140 -84.53111 4623 ft 246 kts 282°
2026-05-08 01:37 33.66476 -84.55130 5374 ft 249 kts 281°
2026-05-08 01:38 33.66812 -84.57149 6423 ft 246 kts 280°
2026-05-08 01:38 33.67144 -84.59143 7402 ft 241 kts 281°
2026-05-08 01:38 33.67478 -84.61118 8259 ft 242 kts 280°
2026-05-08 01:38 33.67817 -84.63104 9092 ft 243 kts 279°
2026-05-08 01:39 33.68156 -84.65099 9932 ft 244 kts 279°
2026-05-08 01:39 33.68495 -84.67120 10486 ft 256 kts 280°
2026-05-08 01:39 33.68867 -84.69313 10656 ft 280 kts 280°
2026-05-08 01:39 33.69269 -84.71690 10851 ft 300 kts 280°
2026-05-08 01:40 33.69689 -84.74181 11352 ft 307 kts 280°
2026-05-08 01:40 33.69995 -84.76711 12124 ft 305 kts 274°
2026-05-08 01:40 33.70031 -84.79273 12845 ft 308 kts 271°
2026-05-08 01:40 33.70020 -84.81856 13535 ft 310 kts 271°
2026-05-08 01:41 33.70004 -84.84452 14224 ft 311 kts 271°
2026-05-08 01:41 33.69989 -84.87049 14869 ft 312 kts 270°
2026-05-08 01:41 33.69977 -84.89668 15470 ft 314 kts 270°
2026-05-08 01:41 33.69967 -84.92301 16042 ft 317 kts 270°
2026-05-08 01:42 33.69958 -84.94952 16641 ft 318 kts 270°
2026-05-08 01:42 33.69950 -84.97616 17227 ft 321 kts 270°
2026-05-08 01:42 33.69942 -85.00272 17786 ft 323 kts 270°
2026-05-08 01:42 33.69934 -85.02987 18352 ft 325 kts 270°
2026-05-08 01:43 33.69925 -85.05708 18835 ft 327 kts 270°
2026-05-08 01:43 33.69916 -85.08454 19282 ft 330 kts 270°
2026-05-08 01:43 33.69906 -85.11224 19775 ft 332 kts 270°
2026-05-08 01:43 33.69896 -85.13998 20272 ft 333 kts 270°
2026-05-08 01:44 33.69885 -85.16784 20735 ft 335 kts 270°
2026-05-08 01:44 33.69873 -85.19593 21195 ft 337 kts 270°
2026-05-08 01:44 33.69860 -85.22411 21633 ft 339 kts 270°
2026-05-08 01:44 33.69839 -85.25249 22075 ft 341 kts 270°
2026-05-08 01:45 33.69809 -85.28102 22517 ft 343 kts 270°
2026-05-08 01:45 33.69776 -85.30974 22944 ft 344 kts 270°
2026-05-08 01:45 33.69742 -85.33859 23303 ft 346 kts 270°
2026-05-08 01:45 33.69707 -85.36765 23678 ft 349 kts 270°
2026-05-08 01:46 33.69673 -85.39684 23997 ft 351 kts 269°
2026-05-08 01:46 33.69638 -85.42618 24328 ft 352 kts 269°
2026-05-08 01:46 33.69602 -85.45530 24653 ft 354 kts 269°
2026-05-08 01:46 33.69566 -85.48530 24994 ft 355 kts 269°
2026-05-08 01:47 33.69529 -85.51465 25307 ft 357 kts 269°
2026-05-08 01:47 33.69491 -85.54457 25625 ft 358 kts 269°
2026-05-08 01:47 33.69452 -85.57449 25917 ft 360 kts 269°
2026-05-08 01:48 33.69372 -85.63483 26545 ft 362 kts 269°
2026-05-08 01:48 33.69330 -85.66518 26835 ft 364 kts 269°
2026-05-08 01:48 33.69288 -85.69573 27104 ft 366 kts 269°
2026-05-08 01:48 33.69245 -85.72635 27383 ft 366 kts 269°
2026-05-08 01:49 33.69201 -85.75687 27665 ft 367 kts 269°
2026-05-08 01:49 33.69156 -85.78775 27820 ft 371 kts 269°
2026-05-08 01:49 33.69109 -85.81878 28080 ft 372 kts 269°
2026-05-08 01:49 33.69062 -85.84989 28370 ft 373 kts 269°
2026-05-08 01:50 33.69015 -85.88065 28624 ft 374 kts 268°
2026-05-08 01:50 33.68966 -85.91193 28915 ft 374 kts 268°
2026-05-08 01:50 33.68918 -85.94310 29315 ft 372 kts 268°
2026-05-08 01:50 33.68868 -85.97412 29734 ft 370 kts 268°
2026-05-08 01:51 33.68817 -86.00493 30094 ft 369 kts 268°
2026-05-08 01:51 33.68841 -86.03573 30401 ft 369 kts 272°
2026-05-08 01:51 33.69143 -86.06626 30721 ft 369 kts 278°
2026-05-08 01:51 33.69683 -86.09647 31053 ft 368 kts 279°
2026-05-08 01:52 33.70234 -86.12645 31364 ft 368 kts 279°
2026-05-08 01:52 33.70785 -86.15643 31681 ft 367 kts 279°
2026-05-08 01:52 33.71331 -86.18630 32047 ft 365 kts 279°
2026-05-08 01:52 33.71871 -86.21606 32345 ft 365 kts 278°
2026-05-08 01:53 33.72409 -86.24586 32649 ft 364 kts 278°
2026-05-08 01:53 33.72763 -86.26554 32859 ft 363 kts 278°
2026-05-08 01:53 33.73295 -86.29514 33146 ft 363 kts 278°
2026-05-08 01:53 33.73826 -86.32489 33249 ft 366 kts 278°
2026-05-08 01:54 33.74537 -86.36480 33379 ft 371 kts 278°
2026-05-08 01:54 33.74903 -86.38538 33508 ft 372 kts 278°
2026-05-08 01:54 33.75443 -86.41572 33746 ft 371 kts 278°
2026-05-08 01:54 33.75975 -86.44563 34053 ft 370 kts 278°
2026-05-08 01:55 33.77054 -86.50645 34041 ft 372 kts 278°
2026-05-08 01:55 33.78125 -86.56701 34052 ft 369 kts 278°
2026-05-08 01:56 33.79187 -86.62725 34064 ft 367 kts 278°
2026-05-08 01:56 33.80242 -86.68741 34057 ft 367 kts 278°
2026-05-08 01:57 33.81294 -86.74742 34055 ft 366 kts 278°
2026-05-08 01:57 33.82334 -86.80700 34054 ft 366 kts 278°
2026-05-08 01:58 33.83371 -86.86646 33572 ft 356 kts 278°
2026-05-08 01:58 33.83877 -86.89560 32814 ft 358 kts 278°
2026-05-08 01:58 33.84383 -86.92481 32452 ft 351 kts 278°
2026-05-08 01:59 33.84876 -86.95318 32195 ft 343 kts 278°
2026-05-08 01:59 33.85361 -86.98116 32087 ft 343 kts 278°
2026-05-08 01:59 33.86338 -87.03791 32049 ft 345 kts 278°
2026-05-08 02:00 33.87299 -87.09385 32052 ft 343 kts 278°
2026-05-08 02:00 33.88261 -87.14993 32030 ft 341 kts 278°
2026-05-08 02:01 33.89218 -87.20590 32088 ft 341 kts 278°
2026-05-08 02:01 33.90171 -87.26177 32083 ft 341 kts 278°
2026-05-08 02:02 33.91133 -87.31848 32091 ft 353 kts 278°
2026-05-08 02:02 33.92130 -87.37722 32095 ft 363 kts 278°
2026-05-08 02:03 33.93232 -87.43742 32084 ft 374 kts 282°
2026-05-08 02:03 33.95301 -87.49549 32075 ft 383 kts 292°
2026-05-08 02:04 33.97983 -87.55111 32061 ft 384 kts 292°
2026-05-08 02:04 34.00672 -87.60670 32046 ft 383 kts 292°
2026-05-08 02:05 34.03337 -87.66225 32037 ft 382 kts 292°
2026-05-08 02:05 34.05986 -87.71777 32026 ft 380 kts 292°
2026-05-08 02:06 34.08599 -87.77268 32032 ft 379 kts 292°
2026-05-08 02:06 34.11198 -87.82727 31896 ft 365 kts 292°
2026-05-08 02:07 34.12444 -87.85339 31661 ft 355 kts 291°
2026-05-08 02:07 34.13665 -87.87910 31303 ft 350 kts 291°
2026-05-08 02:07 34.14867 -87.90453 30832 ft 349 kts 291°
2026-05-08 02:07 34.16067 -87.92995 30362 ft 347 kts 291°
2026-05-08 02:08 34.17260 -87.95521 29891 ft 345 kts 291°
2026-05-08 02:08 34.18439 -87.98027 29405 ft 342 kts 291°
2026-05-08 02:08 34.19615 -88.00505 29074 ft 335 kts 291°
2026-05-08 02:08 34.20744 -88.02876 29334 ft 316 kts 291°
2026-05-08 02:09 34.22964 -88.07374 29353 ft 315 kts 292°
2026-05-08 02:09 34.25295 -88.12049 29549 ft 332 kts 292°
2026-05-08 02:10 34.26493 -88.14447 29820 ft 335 kts 292°
2026-05-08 02:10 34.27706 -88.16879 29809 ft 337 kts 292°
2026-05-08 02:10 34.30064 -88.21597 29439 ft 323 kts 292°
2026-05-08 02:11 34.31214 -88.23912 28906 ft 321 kts 292°
2026-05-08 02:11 34.32372 -88.26252 28188 ft 325 kts 293°
2026-05-08 02:11 34.33536 -88.28604 27609 ft 326 kts 293°
2026-05-08 02:11 34.34697 -88.30946 27150 ft 324 kts 293°
2026-05-08 02:12 34.35853 -88.33276 26696 ft 322 kts 293°
2026-05-08 02:12 34.37005 -88.35602 26202 ft 321 kts 294°
2026-05-08 02:12 34.38150 -88.37915 25735 ft 320 kts 294°
2026-05-08 02:12 34.39293 -88.40228 25278 ft 320 kts 294°
2026-05-08 02:13 34.40433 -88.42537 24834 ft 319 kts 294°
2026-05-08 02:13 34.41569 -88.44839 24391 ft 318 kts 294°
2026-05-08 02:13 34.42704 -88.47140 23955 ft 318 kts 295°
2026-05-08 02:13 34.43837 -88.49437 23504 ft 317 kts 295°
2026-05-08 02:14 34.44965 -88.51727 23032 ft 316 kts 295°
2026-05-08 02:14 34.46086 -88.54003 22583 ft 313 kts 295°
2026-05-08 02:14 34.47201 -88.56266 22194 ft 312 kts 295°
2026-05-08 02:14 34.48312 -88.58524 21672 ft 313 kts 295°
2026-05-08 02:15 34.49424 -88.60790 21214 ft 312 kts 295°
2026-05-08 02:15 34.50531 -88.63044 20811 ft 310 kts 295°
2026-05-08 02:15 34.51631 -88.65285 20410 ft 308 kts 295°
2026-05-08 02:15 34.52724 -88.67514 19992 ft 307 kts 295°
2026-05-08 02:16 34.53816 -88.69742 19580 ft 306 kts 295°
2026-05-08 02:16 34.54889 -88.71934 19182 ft 306 kts 295°
2026-05-08 02:16 34.55973 -88.74149 18793 ft 305 kts 295°
2026-05-08 02:16 34.57053 -88.76357 18404 ft 304 kts 295°
2026-05-08 02:17 34.58128 -88.78556 17977 ft 302 kts 295°
2026-05-08 02:17 34.59197 -88.80745 17568 ft 301 kts 296°
2026-05-08 02:17 34.60261 -88.82925 17161 ft 299 kts 296°
2026-05-08 02:17 34.61322 -88.85097 16763 ft 298 kts 296°
2026-05-08 02:18 34.62377 -88.87260 16351 ft 297 kts 296°
2026-05-08 02:18 34.63420 -88.89425 15953 ft 296 kts 294°
2026-05-08 02:18 34.64413 -88.91596 15695 ft 291 kts 295°
2026-05-08 02:18 34.65375 -88.93752 15281 ft 291 kts 294°
2026-05-08 02:19 34.66318 -88.95939 14833 ft 291 kts 291°
2026-05-08 02:19 34.66697 -88.98284 14408 ft 290 kts 266°
2026-05-08 02:19 34.66517 -89.00706 14073 ft 287 kts 271°
2026-05-08 02:19 34.66697 -89.03109 13673 ft 286 kts 279°
2026-05-08 02:20 34.67096 -89.05475 13240 ft 286 kts 283°
2026-05-08 02:20 34.67575 -89.07820 12825 ft 286 kts 284°
2026-05-08 02:20 34.68057 -89.10160 12421 ft 285 kts 283°
2026-05-08 02:20 34.68510 -89.12499 12065 ft 284 kts 283°
2026-05-08 02:21 34.68956 -89.14828 11680 ft 283 kts 283°
2026-05-08 02:21 34.69403 -89.17160 11288 ft 283 kts 283°
2026-05-08 02:21 34.69849 -89.19487 11008 ft 280 kts 283°
2026-05-08 02:21 34.70283 -89.21745 10933 ft 269 kts 284°
2026-05-08 02:22 34.70701 -89.23916 10828 ft 260 kts 284°
2026-05-08 02:22 34.71105 -89.26019 10692 ft 252 kts 284°
2026-05-08 02:22 34.71500 -89.28075 10521 ft 247 kts 284°
2026-05-08 02:22 34.71887 -89.30091 10354 ft 242 kts 284°
2026-05-08 02:23 34.72261 -89.32065 10176 ft 238 kts 284°
2026-05-08 02:23 34.72631 -89.34016 9896 ft 237 kts 284°
2026-05-08 02:23 34.73003 -89.35957 9527 ft 240 kts 285°
2026-05-08 02:23 34.73455 -89.37927 9262 ft 238 kts 287°
2026-05-08 02:24 34.73919 -89.39838 8973 ft 239 kts 288°
2026-05-08 02:24 34.74392 -89.41778 8633 ft 240 kts 288°
2026-05-08 02:24 34.74867 -89.43728 8337 ft 240 kts 288°
2026-05-08 02:24 34.75342 -89.45685 8050 ft 240 kts 288°
2026-05-08 02:25 34.75815 -89.47633 7756 ft 241 kts 288°
2026-05-08 02:25 34.76280 -89.49566 7472 ft 241 kts 288°
2026-05-08 02:25 34.76750 -89.51524 7195 ft 241 kts 288°
2026-05-08 02:25 34.77218 -89.53489 6913 ft 242 kts 288°
2026-05-08 02:26 34.77687 -89.55460 6634 ft 242 kts 288°
2026-05-08 02:26 34.78156 -89.57430 6339 ft 243 kts 288°
2026-05-08 02:26 34.78626 -89.59402 6040 ft 243 kts 288°
2026-05-08 02:26 34.79102 -89.61377 5756 ft 243 kts 288°
2026-05-08 02:27 34.79577 -89.63322 5474 ft 243 kts 288°
2026-05-08 02:27 34.80064 -89.65294 5199 ft 243 kts 288°
2026-05-08 02:27 34.80490 -89.67286 5026 ft 244 kts 276°
2026-05-08 02:27 34.80454 -89.69341 5000 ft 243 kts 268°
2026-05-08 02:28 34.80358 -89.71400 4996 ft 244 kts 268°
2026-05-08 02:28 34.80267 -89.73470 4984 ft 245 kts 268°
2026-05-08 02:28 34.80177 -89.75541 4983 ft 245 kts 268°
2026-05-08 02:28 34.80089 -89.77583 4982 ft 244 kts 268°
2026-05-08 02:29 34.80000 -89.79650 4976 ft 245 kts 268°
2026-05-08 02:29 34.79913 -89.81719 4978 ft 244 kts 268°
2026-05-08 02:29 34.79827 -89.83785 4979 ft 245 kts 268°
2026-05-08 02:29 34.79742 -89.85857 4982 ft 245 kts 268°
2026-05-08 02:30 34.79656 -89.87922 4984 ft 245 kts 268°
2026-05-08 02:30 34.79570 -89.90000 4983 ft 245 kts 268°
2026-05-08 02:30 34.79485 -89.92054 4981 ft 245 kts 268°
2026-05-08 02:30 34.79547 -89.94114 4799 ft 246 kts 287°
2026-05-08 02:31 34.80494 -89.95788 4571 ft 241 kts 325°
2026-05-08 02:31 34.82058 -89.96478 4314 ft 242 kts 351°
2026-05-08 02:31 34.83735 -89.96760 3989 ft 244 kts 354°
2026-05-08 02:31 34.85417 -89.96892 3673 ft 240 kts 358°
2026-05-08 02:32 34.87065 -89.96928 3356 ft 232 kts 359°
2026-05-08 02:32 34.88640 -89.96954 3047 ft 222 kts 359°
2026-05-08 02:32 34.90150 -89.96984 2744 ft 212 kts 359°
2026-05-08 02:32 34.91577 -89.97014 2478 ft 202 kts 359°
2026-05-08 02:33 34.92931 -89.97043 2207 ft 187 kts 359°
2026-05-08 02:33 34.94179 -89.97069 1957 ft 172 kts 359°
2026-05-08 02:33 34.95333 -89.97094 1788 ft 164 kts 360°
2026-05-08 02:33 34.96492 -89.97118 1527 ft 166 kts 359°
2026-05-08 02:34 34.97631 -89.97142 1307 ft 162 kts 359°
2026-05-08 02:34 34.98746 -89.97166 1091 ft 159 kts 359°
2026-05-08 02:34 34.99858 -89.97189 878 ft 161 kts 359°
2026-05-08 02:34 35.00971 -89.97215 687 ft 160 kts 358°
2026-05-08 02:35 35.02097 -89.97243 461 ft 161 kts 359°
2026-05-08 02:35 35.03150 -89.97265 327 ft 140 kts 359°
2026-05-08 02:35 35.03931 -89.97279 327 ft 56 kts
2026-05-08 02:35 35.04134 -89.97291 329 ft 13 kts 337°
2026-05-08 02:36 35.04260 -89.97292 327 ft 26 kts
2026-05-08 02:36 35.04445 -89.97310 326 ft 26 kts 342°
2026-05-08 02:36 35.04588 -89.97392 328 ft 13 kts 322°
2026-05-08 02:36 35.04594 -89.97398 328 ft 0 kts 320°
2026-05-08 02:37 35.04600 -89.97405 327 ft 6 kts 320°
2026-05-08 02:37 35.04635 -89.97497 325 ft 19 kts 274°
2026-05-08 02:37 35.04634 -89.97673 324 ft 14 kts 269°
2026-05-08 02:37 35.04632 -89.97721 326 ft 0 kts 264°
2026-05-08 02:38 35.04632 -89.97768 327 ft 13 kts 270°
2026-05-08 02:38 35.04593 -89.97837 326 ft 17 kts 192°
2026-05-08 02:39 35.04469 -89.97839 328 ft 18 kts 178°
2026-05-08 02:39 35.04346 -89.97836 328 ft 17 kts 179°
2026-05-08 02:39 35.04268 -89.97835 327 ft 0 kts 179°
2026-05-08 02:39 35.04264 -89.97835 327 ft 3 kts 180°
2026-05-08 02:40 35.04213 -89.97853 328 ft 9 kts 209°
2026-05-08 02:40 35.04174 -89.97881 329 ft 0 kts 220°
2026-05-08 02:40 35.04171 -89.97886 325 ft 4 kts 225°
2026-05-08 02:40 35.04162 -89.97899 328 ft 3 kts 232°
2026-05-08 02:41 35.04160 -89.97902 326 ft 0 kts 232°